GW5520 Weather Reports


time (UTC)temp
C
wind
direction
speed
KPH
gust
KPH
rain 1hr
cm
rain 24hr
cm
rain mn
cm
humidity
%
barometer
mb
20260505025429 20 192 9.7 17.7 0.00 0.00 0.00 58
20260505024928 20 210 8.0 14.5 0.00 0.00 0.00 58
20260505024425 21 198 9.7 17.7 0.00 0.00 0.00 58
20260505023922 21 193 8.0 25.7 0.00 0.00 0.00 58
20260505023419 21 182 9.7 20.9 0.00 0.00 0.00 58
20260505022916 21 200 9.7 11.3 0.00 0.00 0.00 58
20260505022413 21 197 8.0 12.9 0.00 0.00 0.00 57
20260505021910 21 196 9.7 16.1 0.00 0.00 0.00 56
20260505021407 21 201 8.0 12.9 0.00 0.00 0.00 56
20260505020903 21 180 9.7 17.7 0.00 0.00 0.00 55
20260505020358 21 200 12.9 16.1 0.00 0.00 0.00 55
20260505015855 21 196 9.7 14.5 0.00 0.00 0.00 55
20260505015352 21 215 9.7 20.9 0.00 0.00 0.00 55
20260505014850 21 201 9.7 22.5 0.00 0.00 0.00 55
20260505014346 21 184 6.4 11.3 0.00 0.00 0.00 56
20260505013843 22 175 9.7 16.1 0.00 0.00 0.00 55
20260505013340 22 193 8.0 19.3 0.00 0.00 0.00 55
20260505012839 22 208 6.4 14.5 0.00 0.00 0.00 55
20260505012336 22 208 8.0 9.7 0.00 0.00 0.00 55
20260505011832 22 198 9.7 14.5 0.00 0.00 0.00 54
20260505011329 22 208 6.4 12.9 0.00 0.00 0.00 54
20260505010825 22 181 3.2 9.7 0.00 0.00 0.00 53
20260505010321 22 190 11.3 14.5 0.00 0.00 0.00 53
20260505005817 22 211 8.0 12.9 0.00 0.00 0.00 52
20260505005314 23 203 11.3 12.9 0.00 0.00 0.00 52
20260505004812 23 213 3.2 11.3 0.00 0.00 0.00 52
20260505004308 23 189 4.8 9.7 0.00 0.00 0.00 51
20260505003806 23 203 6.4 9.7 0.00 0.00 0.00 49
20260505003303 23 191 4.8 11.3 0.00 0.00 0.00 47
20260505002759 23 214 4.8 14.5 0.00 0.00 0.00 47
20260505002256 23 200 9.7 12.9 0.00 0.00 0.00 46
20260505001754 24 212 8.0 17.7 0.00 0.00 0.00 46
20260505001251 24 210 14.5 14.5 0.00 0.00 0.00 46
20260505000748 24 206 6.4 12.9 0.00 0.00 0.00 45
20260505000246 24 190 11.3 14.5 0.00 0.00 0.00 45
20260504235742 25 187 8.0 12.9 0.00 0.00 0.00 45
20260504235238 25 228 6.4 25.7 0.00 0.00 0.00 44
20260504234736 25 191 9.7 17.7 0.00 0.00 0.00 44
20260504234233 25 219 6.4 19.3 0.00 0.00 0.00 43
20260504233729 25 208 12.9 20.9 0.00 0.00 0.00 43
20260504233225 25 203 9.7 14.5 0.00 0.00 0.00 43
20260504232722 25 214 19.3 22.5 0.00 0.00 0.00 42
20260504232219 26 208 8.0 14.5 0.00 0.00 0.00 43
20260504231716 26 194 8.0 17.7 0.00 0.00 0.00 42
20260504231212 26 208 6.4 14.5 0.00 0.00 0.00 42
20260504230708 26 193 8.0 16.1 0.00 0.00 0.00 42
20260504230208 26 211 12.9 20.9 0.00 0.00 0.00 41
20260504225706 26 219 9.7 24.1 0.00 0.00 0.00 40
20260504225201 26 204 14.5 22.5 0.00 0.00 0.00 40
20260504224659 26 126 9.7 20.9 0.00 0.00 0.00 40
20260504224156 26 209 20.9 20.9 0.00 0.00 0.00 38
20260504223653 26 184 3.2 19.3 0.00 0.00 0.00 40
20260504223148 26 202 14.5 25.7 0.00 0.00 0.00 39
20260504222645 26 182 14.5 25.7 0.00 0.00 0.00 39
20260504222142 26 230 9.7 25.7 0.00 0.00 0.00 41
20260504221639 26 215 14.5 29.0 0.00 0.00 0.00 39
20260504221136 27 219 12.9 27.4 0.00 0.00 0.00 40
20260504220632 27 184 17.7 19.3 0.00 0.00 0.00 39
20260504220130 27 215 12.9 27.4 0.00 0.00 0.00 41
20260504215626 27 202 9.7 25.7 0.00 0.00 0.00 40
20260504215124 26 185 20.9 25.7 0.00 0.00 0.00 40
20260504214620 27 222 12.9 24.1 0.00 0.00 0.00 39
20260504214116 27 212 17.7 30.6 0.00 0.00 0.00 39
20260504213613 27 205 12.9 19.3 0.00 0.00 0.00 40
20260504213110 27 201 12.9 27.4 0.00 0.00 0.00 40
20260504212606 27 236 9.7 24.1 0.00 0.00 0.00 39
20260504212103 27 201 4.8 24.1 0.00 0.00 0.00 38
20260504211600 27 208 8.0 19.3 0.00 0.00 0.00 39
20260504211056 27 202 16.1 27.4 0.00 0.00 0.00 38
20260504210554 27 190 11.3 30.6 0.00 0.00 0.00 41
20260504210050 26 228 8.0 27.4 0.00 0.00 0.00 40
20260504205548 27 245 8.0 25.7 0.00 0.00 0.00 40
20260504205046 26 181 8.0 33.8 0.00 0.00 0.00 40
20260504204544 27 200 22.5 33.8 0.00 0.00 0.00 37
20260504204043 27 203 11.3 29.0 0.00 0.00 0.00 38
20260504203540 27 194 16.1 29.0 0.00 0.00 0.00 38
20260504203038 27 194 14.5 24.1 0.00 0.00 0.00 42
20260504202533 26 193 11.3 22.5 0.00 0.00 0.00 42
20260504202030 26 344 8.0 22.5 0.00 0.00 0.00 40
20260504201527 27 180 22.5 25.7 0.00 0.00 0.00 40
20260504201025 27 250 3.2 22.5 0.00 0.00 0.00 40
20260504200521 27 244 14.5 33.8 0.00 0.00 0.00 39
20260504200018 27 207 20.9 30.6 0.00 0.00 0.00 39
20260504195514 27 189 12.9 25.7 0.00 0.00 0.00 41
20260504195011 27 209 16.1 25.7 0.00 0.00 0.00 40
20260504194507 27 189 11.3 19.3 0.00 0.00 0.00 41
20260504194002 27 204 11.3 20.9 0.00 0.00 0.00 41
20260504193500 27 211 17.7 32.2 0.00 0.00 0.00 41
20260504192959 27 192 17.7 22.5 0.00 0.00 0.00 40
20260504192456 27 204 19.3 30.6 0.00 0.00 0.00 40
20260504191954 27 202 14.5 25.7 0.00 0.00 0.00 39
20260504191452 27 227 9.7 14.5 0.00 0.00 0.00 43
20260504190947 26 194 12.9 25.7 0.00 0.00 0.00 43
20260504190443 26 203 9.7 25.7 0.00 0.00 0.00 43
20260504185940 25 226 20.9 32.2 0.00 0.00 0.00 43
20260504185437 26 181 20.9 25.7 0.00 0.00 0.00 41
20260504184933 26 199 6.4 24.1 0.00 0.00 0.00 43
20260504184429 26 214 12.9 20.9 0.00 0.00 0.00 41
20260504183925 26 193 8.0 16.1 0.00 0.00 0.00 44
20260504183422 26 190 3.2 25.7 0.00 0.00 0.00 41
20260504182920 26 171 25.7 27.4 0.00 0.00 0.00 42
20260504182417 26 195 14.5 29.0 0.00 0.00 0.00 43
20260504181914 26 211 16.1 33.8 0.00 0.00 0.00 41
20260504181411 26 205 25.7 27.4 0.00 0.00 0.00 41
20260504180910 26 227 4.8 22.5 0.00 0.00 0.00 44
20260504180408 26 207 12.9 20.9 0.00 0.00 0.00 43
20260504175906 26 190 9.7 19.3 0.00 0.00 0.00 44
20260504175402 25 193 17.7 24.1 0.00 0.00 0.00 44
20260504174900 26 194 16.1 25.7 0.00 0.00 0.00 45
20260504174358 25 199 8.0 20.9 0.00 0.00 0.00 43
20260504173855 25 213 14.5 27.4 0.00 0.00 0.00 43
20260504173351 25 198 16.1 30.6 0.00 0.00 0.00 44
20260504172848 25 228 9.7 19.3 0.00 0.00 0.00 44
20260504172345 25 265 8.0 20.9 0.00 0.00 0.00 45
20260504171840 25 257 9.7 22.5 0.00 0.00 0.00 44
20260504171338 25 193 19.3 27.4 0.00 0.00 0.00 43
20260504170835 25 203 16.1 20.9 0.00 0.00 0.00 46
20260504170332 25 211 17.7 25.7 0.00 0.00 0.00 44
20260504160250 23 196 17.7 24.1 0.00 0.00 0.00 48
20260504150716 21 199 12.9 14.5 0.00 0.00 0.00 52
20260504150213 21 174 6.4 20.9 0.00 0.00 0.00 51
20260504141142 19 236 9.7 24.1 0.00 0.00 0.00 57
20260504140638 19 209 14.5 22.5 0.00 0.00 0.00 54
20260504140134 18 212 25.7 25.7 0.00 0.00 0.00 56
20260504130602 17 204 12.9 24.1 0.00 0.00 0.00 59
20260504110450 16 192 8.0 16.1 0.00 0.00 0.00 59
20260504100412 16 203 8.0 12.9 0.00 0.00 0.00 60
20260504081805 17 199 14.5 22.5 0.00 0.00 0.00 56
20260504081302 17 198 11.3 17.7 0.00 0.00 0.00 56
20260504080758 17 193 8.0 16.1 0.00 0.00 0.00 56
20260504080255 17 202 6.4 19.3 0.00 0.00 0.00 56
20260504070222 18 202 8.0 19.3 0.00 0.00 0.00 53
20260504060143 18 211 8.0 14.5 0.00 0.00 0.00 52
20260504050611 18 197 9.7 24.1 0.00 0.00 0.00 51
20260504050108 18 208 11.3 19.3 0.00 0.00 0.00 50
20260504045605 18 228 8.0 17.7 0.00 0.00 0.00 50
20260504045100 18 213 6.4 20.9 0.00 0.00 0.00 50
20260504044558 18 210 17.7 22.5 0.00 0.00 0.00 49
20260504044054 18 203 8.0 17.7 0.00 0.00 0.00 49
20260504043552 18 209 9.7 19.3 0.00 0.00 0.00 49
20260504043049 18 202 8.0 19.3 0.00 0.00 0.00 48
20260504042546 18 215 8.0 22.5 0.00 0.00 0.00 48
20260504042043 18 213 19.3 24.1 0.00 0.00 0.00 47
20260504041538 18 193 11.3 16.1 0.00 0.00 0.00 47
20260504041035 18 239 4.8 17.7 0.00 0.00 0.00 47
20260504040532 18 195 6.4 12.9 0.00 0.00 0.00 46
20260504040029 19 220 14.5 17.7 0.00 0.00 0.00 46
20260504035526 18 211 9.7 12.9 0.00 0.00 0.00 47
20260504035022 19 188 14.5 16.1 0.00 0.00 0.00 46
20260504034520 19 191 9.7 14.5 0.00 0.00 0.00 46
20260504034017 19 203 11.3 17.7 0.00 0.00 0.00 46
20260504033515 19 163 8.0 16.1 0.00 0.00 0.00 46
20260504033012 19 209 9.7 14.5 0.00 0.00 0.00 46
20260504032509 19 180 11.3 12.9 0.00 0.00 0.00 46
20260504032005 19 219 11.3 11.3 0.00 0.00 0.00 46
20260504031502 19 181 8.0 9.7 0.00 0.00 0.00 47
20260504030959 19 201 8.0 11.3 0.00 0.00 0.00 47
20260504030456 19 183 11.3 14.5 0.00 0.00 0.00 48
20260504025952 19 216 3.2 11.3 0.00 0.00 0.00 48